Hourly Data Report for January 17, 2022

TORONTO CITY
ONTARIO
Current Station Operator: ECCC - MSC

43°40'00.000" N
79°24'00.000" W
112.50 m
6158355
71508
XTO

Download Data

Hourly Data (January 2022)
Hourly Data Report for January 17, 2022
TIME
LST
Temp Definition
°C
Dew Point Definition
°C
Rel Hum Definition
%
Precip. Amount Definition
mm

Wind Dir Definition
10's deg

Wind Spd Definition
km/h
Visibility Definition
km
Stn Press Definition
kPa
Hmdx Definition


Wind Chill Definition


Weather Definition


00:00 -2.8 -3.9 92 1.6       99.13     LegendNANA
01:00 -2.4 -3.6 92 0.9       98.95     LegendNANA
02:00 -2.4 -3.6 92 1.5       98.74     LegendNANA
03:00 -2.5 -3.6 92 1.8       98.49     LegendNANA
04:00 -2.8 -4.0 92 1.5       98.22     LegendNANA
05:00 -3.6 -4.7 92 2.5       97.98     LegendNANA
06:00 -4.2 -5.0 94 4.0       97.87     LegendNANA
07:00 -4.4 -5.2 94 11.2       97.71     LegendNANA
08:00 -4.8 -5.6 94 7.4       97.68     LegendNANA
09:00 -4.9 -5.9 93 3.1       97.67     LegendNANA
10:00 -4.8 -6.0 91 1.6       97.66     LegendNANA
11:00 -4.3 -5.8 89 0.1       97.68     LegendNANA
12:00 -3.5 -5.2 88 0.4       97.67     LegendNANA
13:00 -3.5 -5.9 84 0.3       97.64     LegendNANA
14:00 -3.2 -5.6 84 0.2       97.69     LegendNANA
15:00 -3.4 -5.9 83 0.3       97.84     LegendNANA
16:00 -3.2 -6.0 81 0.1       97.99     LegendNANA
17:00 -3.4 -7.5 73 0.1       98.16     LegendNANA
18:00 -3.2 -8.2 68 0.0       98.38     LegendNANA
19:00 -3.3 -8.0 70 0.0       98.54     LegendNANA
20:00 -3.3 -7.1 75 0.0       98.67     LegendNANA
21:00 -3.0 -7.0 74 0.0       98.78     LegendNANA
22:00 -3.0 -6.6 76 0.0       98.90     LegendNANA
23:00 -2.9 -6.7 75 0.0       98.99     LegendNANA

Notes on Data Quality.

Legend

  • E = Estimated
  • M = Missing
  • NA = Not Available*
  • [empty] = Indicates an unobserved value
Date modified: